Погода в Новоямском

Россия / Брянская область     52°12′25″N   34°29′05″E
В апреле 2022 года жителям России запретили посещать сайт meteo.paraplan.net по решению Генеральной прокуратуры. Аудитория сайта уменьшилась в 10 раз. Владельцы сайта не видят смысла в поддержке погодного сервера в таких условиях. Сайт будет закрыт в октябре.
темп.,
°C
ветер,
м/с
пор.,
м/с
влажн.,
%
обл.,
%
осадки,
мм/ч
давл.,
гПа
погр.,
м
4 октября, вт
вт400:00+9ю101682100 0.1 10001261
03:00+6юз61192100 3.3 1002842
06:00+6ююз71191100 1.6 10041180
09:00+7ююз71084100 1.9 1006923
12:00+7ююз51088100 0.3 10071125
15:00+7юз6988100 1.0 1009945
18:00+7ююз5991100 0.6 10101023
21:00+7юз61193100 1.2 1011712
5 октября, ср
ср500:00+7юз51194100 0.8 1012634
03:00+7зюз5989100 1.6 1013902
06:00+7зюз4993100 0.0 1014539
09:00+7з5108853 0.8 1016692
12:00+8з6883100 0.4 10181142
15:00+9з797795 0.9 10191095
18:00+8з5108891 0.1 1020507
21:00+8зюз51292100 0.3 1021522
6 октября, чт
чт600:00+9з4995100 0.1 1021426
03:00+9зюз41192100 0.1 1021351
06:00+9зюз4993100 0.0 1021277
09:00+10зюз488867 0.0 1021295
12:00+12зюз4778100 0.0 1021493
15:00+14зюз467110 0.0 1021572
18:00+12ююз34835 0.0 102163
21:00+10юз38911 0.0 1022147
7 октября, пт
пт700:00+9зюз389356 0.0 1022145
03:00+8з37955 0.0 1022139
06:00+8зсз399745 0.0 1023213
09:00+11сз5109137 0.0 1025382
12:00+15сз56600 0.0 1026715
15:00+16сз46560 0.0 1026855
18:00+11сз33770 0.0 102731
21:00+9ссз22890 0.0 102819
8 октября, сб
сб800:00+8св11890 0.0 102810
03:00+7юв11890 0.0 102810
06:00+7ююв22913 0.0 102713
09:00+9ююв24825 0.0 1027156
12:00+14ю34615 0.0 1025636
15:00+16ю45525 0.0 1023902
18:00+11ю33715 0.0 102232
21:00+9ю358075 0.0 102268